Theta_e
323 323 323 323 323 323 323 324 323 322 321 321 321 321 322 322 319 315 308 318 320 325 323 319 317 316 317 312 310 312 297 294 298 301 304 313 312 317 323 325 329 330 329 334 337
321 323 323 323 323 323 323 323 323 323 322 321 321 321 323 322 313 310 316 324 325 323 316 313 310 313 309 309 307 305 297 295 302 306 307 311 313 316 319 323 325 328 333 337 335
320 321 322 322 322 322 323 322 323 323 323 324 324 323 323 317 306 306 319 324 324 319 317 316 314 311 305 307 304 305 299 301 304 307 308 309 312 315 317 317 323 326 328 332 333
319 320 321 321 322 322 322 322 322 322 323 324 324 323 320 312 295 310 321 321 321 318 314 313 310 305 302 301 306 299 304 303 306 307 306 306 310 311 315 319 324 330 332 331 330
318 319 320 320 320 321 321 321 321 321 322 322 323 322 314 305 305 314 320 318 318 316 310 308 305 304 299 302 304 301 302 304 306 307 306 307 306 308 311 322 326 332 332 332 331
318 318 318 319 319 320 320 321 321 321 321 321 322 320 309 300 314 316 316 316 314 313 310 308 305 306 302 302 301 303 303 303 304 305 306 303 304 306 311 318 326 331 329 330 330
318 318 317 318 318 319 320 320 320 320 320 320 321 312 306 305 315 316 316 314 314 311 308 310 308 303 304 301 306 304 297 301 302 303 303 304 301 302 311 320 325 326 327 330 330
317 316 317 317 318 318 318 319 319 320 320 321 320 310 303 313 318 314 315 314 315 314 312 313 312 306 302 306 302 299 299 294 300 301 303 302 296 305 310 318 322 324 326 328 328
317 316 315 317 318 318 318 318 319 320 319 320 311 308 301 316 309 314 315 309 312 313 314 313 310 304 304 299 295 296 290 293 294 301 300 299 298 305 312 317 320 324 325 325 326
316 315 314 317 317 318 318 317 317 317 316 311 309 303 304 302 309 312 315 312 309 309 306 305 304 299 299 296 287 288 289 292 293 297 298 297 298 304 310 314 318 323 324 322 323
315 314 314 316 317 317 313 308 304 302 304 300 300 301 303 309 313 310 312 310 308 305 298 301 296 293 294 297 296 295 291 291 295 298 296 295 297 302 307 312 315 320 321 320 323
316 314 314 316 316 316 309 304 303 304 297 301 301 303 305 308 300 305 312 303 301 296 299 295 291 296 298 297 296 294 291 293 295 297 296 295 295 300 304 310 315 318 318 321 323
317 314 315 316 315 311 306 304 309 308 297 298 301 299 301 305 299 300 307 304 299 296 296 292 294 299 296 295 294 294 290 292 291 295 298 294 292 297 302 310 313 317 317 319 320
316 316 315 315 308 307 304 306 309 306 295 293 295 299 301 302 297 305 309 301 298 294 295 294 298 296 295 293 295 290 296 295 292 293 287 295 286 295 301 303 309 314 316 313 315
316 316 314 309 306 303 304 308 308 303 287 292 295 304 301 297 298 298 307 299 294 293 293 290 293 294 292 294 297 292 294 293 293 293 292 292 290 293 297 298 303 311 313 313 316
315 315 313 309 308 306 308 306 303 295 287 289 295 295 295 295 295 298 297 299 297 293 293 292 296 295 295 296 297 296 293 294 294 293 286 290 290 292 295 300 303 305 311 316 315
315 313 310 308 304 308 307 304 294 292 290 290 291 294 292 291 293 293 292 292 292 288 288 290 292 294 295 293 294 293 291 286 285 285 284 288 289 294 296 296 301 303 304 309 315
314 309 308 307 309 308 305 298 288 286 288 292 292 292 289 291 291 291 290 289 291 290 289 287 286 291 294 292 291 291 292 287 278 282 285 286 288 294 296 297 298 299 300 304 310
310 308 308 306 307 306 301 294 291 289 291 290 291 288 289 289 289 290 289 289 290 292 288 287 285 292 293 294 293 291 289 291 286 284 286 288 291 293 294 296 296 297 299 302 307
306 306 305 306 305 303 297 293 290 292 292 292 287 289 286 288 288 288 288 291 290 293 294 289 285 289 292 294 293 291 293 288 289 281 280 285 286 294 290 294 295 295 299 302 304
304 300 305 306 304 299 294 292 291 294 294 291 289 288 288 287 288 287 288 290 292 292 294 291 289 287 291 289 290 290 289 288 288 287 284 283 287 292 291 294 295 297 300 301 302
302 296 305 305 298 292 291 290 293 292 293 293 292 291 288 288 288 288 288 289 294 294 289 291 289 287 288 291 292 290 289 290 287 284 286 285 288 291 292 294 297 297 299 301 303
300 298 306 304 294 293 291 290 292 291 292 292 291 291 291 289 287 290 290 294 295 292 290 291 288 285 285 289 291 288 289 288 288 288 285 284 288 290 292 294 296 298 299 301 301
299 294 297 301 296 293 291 290 290 294 292 293 292 292 290 289 290 289 290 293 295 294 295 293 287 286 284 284 287 286 287 288 288 285 285 286 287 288 292 293 295 297 299 300 299
299 294 294 293 294 293 291 291 290 289 293 294 291 291 290 287 288 287 290 291 294 295 292 291 287 285 287 287 286 286 286 287 285 287 284 285 286 291 293 294 295 296 295 295 295
296 295 294 292 291 291 292 291 290 291 292 290 290 291 292 289 290 288 290 290 290 291 291 290 287 286 286 286 286 284 287 287 287 287 286 286 286 293 294 293 292 293 294 294 294
300 297 297 295 291 290 291 292 292 293 294 294 293 291 289 292 294 293 293 292 292 291 290 289 288 285 284 285 285 284 287 287 287 288 289 285 290 291 290 291 293 293 294 294 294
Wind_Speed
12 11 11 11 11 11 10 8 8 8 7 7 7 7 8 8 7 2 3 6 7 11 5 4 4 4 5 5 3 4 8 13 17 12 18 6 9 4 2 8 5 7 3 11 20
12 12 11 11 11 11 11 10 9 9 8 8 9 10 9 6 3 1 2 11 11 6 4 6 8 7 6 7 1 10 11 11 8 6 11 5 8 6 8 9 7 8 5 19 19
12 11 12 11 12 11 11 11 10 11 10 9 10 10 10 4 3 2 6 11 10 2 1 3 5 7 9 5 5 9 10 9 6 5 4 9 6 1 8 10 9 13 14 18 19
11 12 12 12 12 13 12 12 11 11 11 10 8 9 9 5 8 4 8 9 5 2 2 3 3 4 4 10 9 6 10 11 2 2 4 4 8 6 6 3 1 7 20 20 21
13 12 12 12 13 13 13 14 12 11 12 11 8 6 4 4 5 3 8 5 3 1 2 1 3 3 3 7 8 10 4 12 10 3 7 6 7 12 7 7 2 10 19 19 19
15 14 13 13 13 13 14 15 15 13 12 11 8 5 2 8 3 3 4 2 5 3 1 2 3 2 3 5 11 7 7 9 14 9 6 6 6 3 13 4 5 15 19 20 21
17 15 14 13 14 13 14 15 16 15 12 11 6 2 3 5 4 4 3 2 3 1 1 3 4 3 2 3 1 5 7 12 15 11 7 4 10 10 8 7 10 14 17 17 21
19 17 16 15 14 13 13 15 15 15 10 6 4 3 4 1 2 4 2 1 1 1 0 4 6 1 0 4 3 5 7 11 9 15 8 4 12 10 7 9 12 14 16 16 16
21 19 16 16 15 14 14 14 12 10 1 6 4 3 2 5 3 1 1 0 1 1 2 5 6 2 6 6 3 5 5 10 3 12 8 11 7 5 4 8 12 15 16 15 13
21 20 16 16 16 14 16 12 3 4 4 2 1 4 4 1 1 3 2 1 2 1 4 4 3 3 5 5 4 2 5 5 10 6 17 11 13 6 2 6 10 15 12 13 13
23 20 18 16 15 14 9 2 3 3 3 3 3 4 3 3 2 4 1 2 2 4 2 1 5 3 2 2 5 7 8 6 7 6 11 18 12 9 3 5 8 12 12 8 10
21 21 19 17 15 11 4 3 3 2 5 2 2 5 2 2 3 5 2 2 1 3 3 1 3 1 1 3 6 6 4 9 6 5 10 14 17 10 5 5 6 11 10 12 9
21 21 18 16 14 1 4 3 1 3 3 1 2 4 1 5 3 2 6 2 2 2 3 5 3 5 2 4 8 7 4 7 3 6 4 11 14 14 3 4 4 5 9 11 6
21 21 18 17 2 1 2 2 2 2 2 1 2 1 2 1 3 2 7 3 4 3 2 4 2 3 4 6 8 5 9 11 7 8 8 7 8 14 9 7 7 8 13 9 10
20 21 15 7 4 1 1 1 2 3 2 2 1 3 2 3 4 3 1 2 5 1 4 3 3 4 3 5 5 4 5 7 6 4 4 8 5 12 6 9 11 11 10 10 7
20 19 12 0 0 3 4 1 2 1 3 3 4 3 2 1 0 3 3 3 2 3 2 0 1 3 3 3 2 6 4 4 4 4 5 7 5 7 8 12 12 12 11 14 14
21 14 4 1 3 4 3 3 1 1 2 3 3 4 3 3 2 4 2 1 2 3 3 2 3 2 2 4 3 5 4 2 3 3 1 2 4 2 6 3 3 11 11 13 13
21 5 3 2 4 4 2 3 1 1 3 2 2 5 4 4 1 3 3 3 2 2 1 3 3 5 5 3 2 6 4 3 1 3 3 1 7 4 4 2 0 3 4 6 9
12 2 2 3 4 2 3 1 3 4 1 1 2 3 2 1 2 4 1 4 1 2 4 3 1 2 2 1 3 4 5 3 3 1 3 3 4 5 2 5 3 4 8 8 9
5 2 1 3 2 1 2 4 3 2 3 2 1 1 3 2 3 2 2 2 2 1 3 0 3 1 2 2 2 4 3 3 2 2 3 4 3 2 4 5 5 8 11 11 11
3 2 2 1 2 1 3 4 4 4 4 4 3 3 4 3 3 2 2 1 0 1 2 3 3 3 1 6 4 4 4 3 2 3 4 1 3 1 2 2 6 9 11 12 13
5 4 2 2 2 2 3 2 3 2 2 3 2 5 4 3 3 3 3 4 4 1 3 1 4 4 3 1 1 2 3 4 4 3 1 3 3 1 1 2 5 9 10 11 11
6 4 1 3 4 4 2 3 4 4 4 4 5 6 3 3 4 5 4 1 4 3 2 1 2 4 3 3 2 5 3 1 1 0 6 4 2 2 3 8 8 11 11 12 12
3 4 2 2 3 3 4 4 3 3 3 4 2 2 3 4 6 3 4 3 4 3 4 4 3 6 4 3 2 3 4 5 5 3 3 6 1 6 7 11 11 10 12 14 13
3 3 2 3 5 5 3 3 5 5 5 6 3 10 7 4 3 6 4 2 4 3 2 4 4 2 7 7 4 6 5 8 9 5 5 1 5 10 11 10 10 12 11 11 12
3 3 1 4 3 4 7 6 8 4 9 6 8 4 12 7 7 5 3 4 2 3 3 1 2 2 4 1 4 7 10 10 10 7 8 6 7 6 10 10 12 12 13 13 13
1 1 4 5 3 5 7 8 8 5 8 3 10 6 8 17 7 1 0 2 1 4 6 3 2 1 4 3 6 10 7 14 8 5 6 8 3 15 11 12 13 13 13 14 14
Wind_Direction
354 354 354 352 354 356 350 352 354 347 339 327 324 322 323 326 313 269 18 330 320 315 315 278 208 215 190 186 260 220 230 227 208 225 209 172 210 164 139 163 180 155 133 139 144
343 343 346 346 348 348 343 344 340 331 328 324 325 332 329 323 285 269 8 325 329 335 287 271 229 192 210 193 222 211 222 224 246 210 233 152 234 187 193 173 175 162 112 135 149
337 335 335 339 339 336 336 334 333 325 318 316 320 324 328 315 271 5 341 339 338 322 357 281 254 202 214 162 181 204 229 197 214 265 291 263 240 251 229 204 190 185 153 152 155
340 333 330 331 330 327 328 324 324 319 312 307 309 320 328 296 7 0 340 341 352 14 277 204 248 207 209 206 167 204 224 220 192 1 302 260 295 241 240 219 345 180 164 157 158
343 332 331 325 322 322 321 316 315 314 308 303 305 324 310 308 342 357 346 345 356 2 353 341 253 226 201 245 191 222 178 216 220 274 312 302 255 250 238 222 230 168 164 162 160
348 338 331 322 317 316 315 311 309 310 306 297 298 308 271 309 60 0 342 343 32 329 204 78 24 357 360 270 210 195 244 255 221 241 265 282 245 274 229 205 183 170 173 166 169
351 342 331 323 317 313 308 306 305 306 304 282 273 240 246 314 350 360 339 44 343 325 186 128 88 216 162 217 234 174 167 256 224 218 257 291 243 224 248 202 184 182 178 169 176
352 344 334 326 318 311 307 303 304 299 293 248 211 203 280 92 302 33 348 341 33 277 214 158 153 102 32 150 209 188 213 203 201 204 225 243 241 209 212 205 194 182 179 181 182
351 346 336 328 320 313 307 301 301 284 161 165 171 249 304 134 268 10 200 195 273 192 230 172 208 244 196 185 147 187 223 216 223 211 211 211 230 193 226 226 205 197 183 178 175
351 345 338 328 321 314 307 304 131 132 111 172 200 238 166 353 178 292 163 299 284 173 169 206 225 225 203 217 220 127 254 218 230 173 217 209 237 249 269 239 229 193 172 182 166
350 345 336 330 325 318 321 184 201 188 201 273 325 275 332 86 143 233 265 236 215 240 255 167 246 208 205 178 38 139 213 276 270 213 222 217 224 245 318 248 243 171 155 158 154
347 345 336 330 328 321 284 54 63 12 300 177 248 272 261 177 256 227 252 226 314 54 308 258 244 191 330 226 223 211 230 272 273 225 217 205 222 246 272 244 252 176 137 113 126
346 345 334 330 319 16 41 52 322 210 273 274 214 267 314 185 278 194 194 203 202 245 277 26 358 153 160 188 202 229 210 241 297 166 225 188 215 237 212 204 167 171 130 117 142
345 345 337 330 234 12 78 332 273 265 294 193 181 165 174 224 254 101 203 274 220 298 255 312 50 247 206 175 221 190 221 239 298 203 189 237 205 212 215 180 182 176 165 153 142
344 346 340 18 332 311 75 288 276 233 324 13 304 106 279 241 333 154 182 210 289 282 234 66 244 237 272 219 204 37 303 228 233 223 219 194 252 192 189 197 174 179 180 169 165
341 343 331 35 29 354 319 263 222 139 273 343 301 323 312 219 300 314 220 215 302 241 236 38 191 246 319 254 263 313 272 169 153 222 206 158 240 185 185 210 175 174 182 190 153
336 338 347 313 1 354 319 263 58 98 112 329 328 340 340 301 306 353 329 176 268 216 207 193 188 204 231 234 212 225 196 174 164 199 164 146 213 309 156 159 171 176 180 184 174
333 340 38 37 347 336 282 258 84 207 240 113 287 291 278 359 200 322 272 259 208 248 198 223 236 195 156 253 322 198 272 191 306 202 130 186 217 164 108 107 340 236 203 164 163
326 9 84 27 3 318 284 284 231 205 151 267 242 276 261 163 284 317 292 300 285 292 297 279 197 134 292 183 220 152 229 29 114 34 246 171 246 201 181 132 106 172 177 168 158
326 318 55 347 357 315 288 256 223 194 152 204 244 200 286 306 295 314 321 103 308 236 289 197 262 158 135 255 138 262 107 227 195 223 253 195 259 227 188 152 129 160 159 152 147
307 298 110 326 187 124 250 265 256 215 178 191 216 241 236 286 274 265 280 205 359 348 261 299 277 136 216 212 195 164 193 184 283 291 300 290 212 102 152 100 135 147 147 145 142
327 280 61 241 235 125 233 280 307 223 180 234 252 234 237 199 244 261 255 243 144 151 279 50 305 255 218 85 325 309 301 258 242 186 287 313 254 111 184 132 135 132 131 129 129
317 283 94 285 225 198 208 242 234 196 232 190 230 227 200 241 257 220 231 163 167 193 192 129 217 285 201 195 175 236 203 180 132 283 210 257 132 76 156 149 143 138 136 132 130
277 286 208 203 329 233 202 211 233 199 233 216 255 167 185 238 224 286 242 186 190 214 152 195 248 258 293 345 330 230 201 202 227 219 168 238 204 180 181 166 151 147 147 143 139
208 251 340 228 214 218 239 209 182 200 215 201 222 220 196 233 218 231 234 216 190 168 167 248 262 208 261 255 255 268 252 197 205 241 239 30 245 179 175 171 157 144 140 140 130
269 249 191 292 274 214 196 222 213 207 173 204 222 203 203 225 221 211 198 213 242 163 211 216 284 309 280 220 238 264 243 232 236 244 254 250 251 173 148 146 156 155 150 142 131
309 296 264 222 234 221 217 210 217 180 221 218 199 180 208 236 206 101 313 40 221 196 188 205 251 280 271 358 307 269 255 206 189 208 217 208 231 152 161 171 169 159 159 149 142